This is the latest recevied weather packets stored in our database for station/object DO6DD-13. If no packets are shown the sender has not sent any weather packets the latest 10 day(s).
| Time | Temp. | Humidity | Pressure | Rain* | Wind** | Luminosity | Snow |
|---|---|---|---|---|---|---|---|
| 1777639217 | 22.22° C | 38% | 1026.1 hPa | - | - | 750 W/m² | - |
| 1777638617 | 21.67° C | 38% | 1026.2 hPa | - | - | 758 W/m² | - |
| 1777638017 | 21.67° C | 38% | 1026.3 hPa | - | - | 766 W/m² | - |
| 1777637416 | 21.67° C | 38% | 1026.4 hPa | - | - | 770 W/m² | - |
| 1777636826 | 21.11° C | 38% | 1026.6 hPa | - | - | 774 W/m² | - |
| 1777636215 | 21.11° C | 38% | 1026.7 hPa | - | - | 776 W/m² | - |
| 1777635625 | 21.11° C | 38% | 1026.9 hPa | - | - | 778 W/m² | - |
| 1777635024 | 20.56° C | 38% | 1027 hPa | - | - | 778 W/m² | - |
| 1777634424 | 21.11° C | 38% | 1027.1 hPa | - | - | 776 W/m² | - |
| 1777633823 | 20.56° C | 39% | 1027.2 hPa | - | - | 774 W/m² | - |
| 1777633223 | 20.56° C | 38% | 1027.3 hPa | - | - | 762 W/m² | - |
| 1777632622 | 20.56° C | 39% | 1027.4 hPa | - | - | 438 W/m² | - |
| 1777632022 | 20° C | 40% | 1027.5 hPa | - | - | 292 W/m² | - |
| 1777631421 | 20° C | 40% | 1027.6 hPa | - | - | 168 W/m² | - |
| 1777630821 | 19.44° C | 41% | 1027.8 hPa | - | - | 142 W/m² | - |
| 1777630220 | 19.44° C | 41% | 1027.9 hPa | - | - | 106 W/m² | - |
| 1777629620 | 18.89° C | 43% | 1028 hPa | - | - | 80 W/m² | - |
| 1777629019 | 18.33° C | 44% | 1028.1 hPa | - | - | 80 W/m² | - |
| 1777628419 | 18.33° C | 45% | 1028.2 hPa | - | - | 76 W/m² | - |
| 1777627818 | 18.33° C | 45% | 1028.2 hPa | - | - | 74 W/m² | - |
| 1777627218 | 17.78° C | 46% | 1028.2 hPa | - | - | 78 W/m² | - |
| 1777626617 | 17.22° C | 47% | 1028.3 hPa | - | - | 72 W/m² | - |
| 1777626017 | 17.22° C | 48% | 1028.5 hPa | - | - | 72 W/m² | - |
| 1777625416 | 17.22° C | 48% | 1028.5 hPa | - | - | 72 W/m² | - |
| 1777624826 | 16.67° C | 49% | 1028.6 hPa | - | - | 68 W/m² | - |
* Rain since midnight (hover to see other rain measurements)
** Current wind speed in m/s (hover to see current wind gust speed)